Regional Weather Roundup
Issued by NWS

Home | Current Version | Previous Version | Graphics & Text | Print | Product List | Glossary On
Versions: 1 2 3 4 5 6 7 8 9 10 11 12 13 14 15 16 17 18 19 20 21 22 23 24 25 26 27 28 29 30 31 32 33 34 35 36 37 38 39 40 41 42 43 44 45 46 47 48 49 50
000
ASUS43 KDMX 231308
RWRIA

WEATHER ROUNDUP FOR IOWA
NATIONAL WEATHER SERVICE DES MOINES IA
800 AM CDT TUE AUG 23 2016

NOTE: "FAIR" INDICATES FEW OR NO CLOUDS BELOW 12,000 FEET WITH NO
SIGNIFICANT WEATHER AND/OR OBSTRUCTIONS TO VISIBILITY.

* - THESE STATIONS ARE NOT NWS STATIONS...THUS NOT UNDER NWS
QUALITY CONTROL.  THEY ALSO DO NOT REPORT WEATHER SUCH
AS PRECIPITATION OR FOG.

IAZ001>003-012>014-020>022-031>034-043>046-231400-
   NORTHWEST IOWA

CITY           SKY/WX    TMP DP  RH WIND       PRES   REMARKS
CARROLL *      MOSUNNY   66  64  94 S10       29.99R
CHEROKEE *     CLOUDY    68  64  86 S12       29.94S
DENISON *      MOSUNNY   66  63  88 S8G15     29.95S
LE MARS *      PTSUNNY   68  63  83 S13G21    29.91S
ORANGE CITY *  PTSUNNY   66  63  88 S12       29.91F
SHELDON *      CLOUDY    66  63  88 S10G17    29.91R
SIOUX CITY     CLOUDY    67  62  84 SE12      29.91S
SPENCER        MOSUNNY   64  59  83 S10       29.95R
STORM LAKE *   PTSUNNY   66  63  88 S13G18    29.97R
$$

IAZ055>058-069>071-079>083-090>094-231400-
   SOUTHWEST IOWA

CITY           SKY/WX    TMP DP  RH WIND       PRES   REMARKS
ATLANTIC *     MOSUNNY   68  64  88 S13G20    30.00S
AUDUBON *      MOSUNNY   68  63  83 S10G16    30.01S
CLARINDA *       N/A     68  64  88 MISG      30.03F
COUNCIL BLFS * MOSUNNY   66  64  94 SE12      29.97F
CRESTON *      SUNNY     66  63  88 S12       30.06R
HARLAN  *      CLOUDY    68  64  88 S12       30.01F FOG
LAMONI         MOSUNNY   64  63  96 S9        30.07R
RED OAK *      MOSUNNY   68  64  88 S9        29.99F
SHENANDOAH *   PTSUNNY   68 -40   1 S14       29.99S
$$

IAZ047>049-059>061-072>074-084-231400-
   CENTRAL IOWA

CITY           SKY/WX    TMP DP  RH WIND       PRES   REMARKS
AMES           CLOUDY    63  63 100 SE6       30.04R
ANKENY *         N/A    N/A N/A N/A MISG        N/A
BOONE *        MOSUNNY   64  63  94 S8        30.03R
CHARITON *       N/A     64  63  94 MISG      30.07S
DES MOINES     MOSUNNY   67  62  84 S12       30.04R
GRINNELL*      MOSUNNY   64  60  88 SE8       30.09R
KNOXVILLE *    PTSUNNY   66  63  88 S8        30.06R
MARSHALLTOWN   MOSUNNY   65  62  90 SE8       30.06R
NEWTON *       CLOUDY    63  63 100 SE8       30.07R
PERRY *          N/A     65  64  97 S9        30.02S
$$

IAZ004>006-015-016-023>025-035-036-231400-
   NORTH CENTRAL IOWA

CITY           SKY/WX    TMP DP  RH WIND       PRES   REMARKS
ALGONA *       SUNNY     66  61  82 S13       29.98F
ESTHERVILLE    MOSUNNY   63  61  93 S12       29.96R
FORT DODGE *   MOSUNNY   66  61  82 S10       30.01R
MASON CITY     CLOUDY    63  60  90 S9        30.04R
FOREST CITY *    N/A     63  61  94 S10       30.02R
WEBSTER CITY * CLOUDY    64  63  94 S12       30.00S
IOWA FALLS *     N/A     63  60  91 SE8       30.06R
$$

IAZ007>011-017>019-026>030-037>042-050>054-066-231400-
   NORTHEAST IOWA

CITY           SKY/WX    TMP DP  RH WIND       PRES   REMARKS
CEDAR RAPIDS   MOSUNNY   64  62  93 S9        30.11R
CHARLES CITY * MOSUNNY   63  63 100 S8G14     30.07R
CLINTON *      SUNNY     65  61  87 S9        30.16R
DECORAH *      MOSUNNY   64  61  88 S8        30.07S
DUBUQUE        SUNNY     63  59  87 S9        30.14R
MONTICELLO *   MOSUNNY   63  61  94 S3        30.13R
OELWEIN *      SUNNY     63  61  94 S10       30.10R
WATERLOO       MOSUNNY   65  59  81 S10G20    30.06R
$$

IAZ064-065-067-068-078-231400-
   EAST CENTRAL IOWA

CITY           SKY/WX    TMP DP  RH WIND       PRES   REMARKS
DAVENPORT      MOSUNNY   66  60  81 S9        30.16R
IOWA CITY      MOSUNNY   63  60  90 SE5       30.14R
MT. PLEASANT * SUNNY     69  65  89 S6        30.14S
MUSCATINE *    PTSUNNY   64  61  88 CALM      30.14R
QUAD CITIES    CLOUDY    66  60  81 S9        30.15R
$$

IAZ062-063-075>077-085>089-095>099-231400-
   SOUTHEAST IOWA

CITY           SKY/WX    TMP DP  RH WIND       PRES   REMARKS
BURLINGTON     SUNNY     65  62  90 S7        30.15R
FAIRFIELD *    MOSUNNY   66  61  82 S10       30.11S
FORT MADISON * SUNNY     64  61  88 S5        30.16R
KEOKUK *       SUNNY     68  61  77 S6        30.14R
OSKALOOSA *      N/A     62  61  95 S8        30.10S
CENTERVILLE *    N/A     64  63  94 S7        30.12R
OTTUMWA        SUNNY     64  60  87 S10       30.09S
WASHINGTON *   MOSUNNY   64  61  88 S8        30.13S
$$

ABBREVIATIONS USED IN REMARKS
   TC - TEMPERATURES IN CELSIUS
  WCI - WIND CHILL INDEX
   HX - HEAT INDEX
  VSB - VISIBILITY
$$





USA.gov is the U.S. government's official web portal to all federal, state and local government web resources and services.